Simultaneous Nadir Overpasses (SNOs) Predictions

Prediction of SNOs between NOAA-15 and METOP-C Satellite Orbit:

Table of predicted SNOs for the next 14.0 days since TLE Epoch: 8/1/2022
Index Date (NOAA-15) Time (NOAA-15) Lat,Lon (NOAA-15) SZA (NOAA-15 ) Date (METOP-C) Time (METOP-C) Lat,Lon (METOP-C) SZA (METOP-C ) Distance(km) Time Diff (sec)
1 08/14/2022 03:25:05 -81.08, -13.29 111.49 08/14/2022 03:23:51 -81.06, -13.34 111.54 1.86 74
2 08/14/2022 04:15:38 81.07, 154.24 68.53 08/14/2022 04:14:31 81.08, 154.37 68.52 2.35 67
3 08/14/2022 05:06:06 -81.07, -38.29 111.46 08/14/2022 05:05:12 -81.07, -38.47 111.49 3.24 54
4 08/14/2022 05:56:40 81.08, 128.87 68.55 08/14/2022 05:55:53 81.07, 128.86 68.52 0.52 47
5 08/14/2022 06:47:08 -81.07, -63.65 111.44 08/14/2022 06:46:33 -81.08, -63.61 111.44 1.13 35
6 08/14/2022 07:37:41 81.07, 103.87 68.59 08/14/2022 07:37:14 81.08, 103.73 68.57 2.98 27
7 08/14/2022 08:28:10 -81.08, -89.02 111.43 08/14/2022 08:27:55 -81.07, -89.12 111.44 1.75 15
8 08/14/2022 09:18:44 81.09, 78.13 68.58 08/14/2022 09:18:36 81.07, 78.22 68.57 2.11 8
9 08/14/2022 10:09:12 -81.08,-114.38 111.41 08/14/2022 10:09:16 -81.08,-114.25 111.40 2.25 4
10 08/14/2022 10:59:45 81.08, 53.13 68.62 08/14/2022 10:59:57 81.08, 53.08 68.62 1.06 12
11 08/14/2022 11:50:14 -81.09,-139.75 111.39 08/14/2022 11:50:38 -81.08,-139.76 111.40 1.26 24
12 08/14/2022 12:40:47 81.08, 27.76 68.63 08/14/2022 12:41:19 81.08, 27.58 68.62 3.18 32
13 08/14/2022 13:31:15 -81.08,-164.74 111.36 08/14/2022 13:31:59 -81.08,-164.89 111.35 2.76 44
14 08/14/2022 14:21:49 81.09, 2.39 68.64 08/14/2022 14:22:40 81.08, 2.44 68.67 0.95 51
15 08/14/2022 15:12:17 -81.08, 169.89 111.34 08/14/2022 15:13:20 -81.09, 169.97 111.30 1.84 63



Historial Predications of SNOs between NOAA-15 and METOP-C
